#timestamp,LO_Frequency,Hit,StdDev 
1597930175.3,286046983.6,P
1597930195.1,286046980.5,P
1597930215.9,286046983.6,P
1597930235.7,286046983.6,Y
1597930255.6,286047000.7,P
1597930275.4,286046998.4,N
1597930295.2,286047001.1,N
1597930315.1,286046998.5,N
1597930316.0,286046998.5,N
1597930335.8,286046998.2,N
1597930355.6,286046998.3,N
1597930375.5,286046998.5,N
1597930395.3,286046998.9,N
1597930415.2,286046998.6,N
1597930435.9,286046998.9,N
1597930455.7,286046999.1,N
1597930475.6,286046999.5,N
1597930495.4,286046999.2,N
1597930515.2,286046999.4,N
1597930535.1,286046998.7,N
1597930536.0,286046998.7,N
1597930555.8,286046996.9,N
1597930575.7,286046999.1,N
1597930595.5,286046997.0,N
1597930615.3,286046999.0,N
1597930635.2,286046999.2,N
1597930655.0,286046998.9,N
1597930655.9,286046998.9,N
1597930675.7,286046999.2,N
1597930695.6,286046996.6,N
1597930715.4,286046998.8,N
1597930735.3,286046999.3,N
1597930755.1,286046997.1,N
1597930756.0,286046997.1,N
1597930775.8,286046996.8,Y
1597930795.7,286047001.1,P
1597930815.5,286047000.8,N
1597930835.4,286047000.3,N
1597930855.2,286047001.1,N
1597930875.0,286047000.9,N
1597930875.9,286047000.9,N
1597930895.8,286047001.1,N
1597930915.6,286047001.1,N
1597930935.4,286047001.1,N
1597930955.3,286046998.2,N
1597930975.1,286046999.0,N
1597930995.9,286046999.3,N
1597931015.7,286047001.2,N
1597931035.5,286046998.8,N
1597931055.4,286046996.6,Y
1597931075.2,286046999.5,P
1597931095.0,286046997.3,P
1597931095.9,286046997.3,N
1597931115.8,286046999.5,N
1597931135.6,286046997.4,N
1597931155.5,286046996.6,N
1597931175.3,286046999.6,N
1597931195.1,286046996.8,N
1597931215.9,286046996.6,N
1597931235.7,286046999.6,N
1597931255.5,286046997.2,N
1597931275.4,286046997.8,N
1597931295.2,286046999.6,N
1597931315.1,286046999.2,N
1597931316.0,286046999.2,N
1597931335.8,286046997.7,N
1597931355.6,286046997.0,N
1597931375.5,286046997.1,N
1597931395.3,286046996.5,N
1597931415.1,286046999.6,N
1597931435.9,286046998.6,N
1597931455.7,286047000.3,N
1597931475.6,286047002.4,N
1597931495.4,286047002.2,N
1597931515.2,286046999.7,N
1597931535.1,286047002.4,N
1597931536.0,286047002.4,N
1597931555.8,286047002.4,N
1597931575.6,286046999.8,N
1597931595.5,286047000.1,N
1597931615.3,286046999.8,N
1597931635.2,286047002.5,N
1597931655.9,286047002.7,N
1597931675.7,286046999.9,N
1597931695.6,286047002.1,N
1597931715.4,286046999.9,N
1597931735.2,286047001.2,N
1597931755.1,286046996.9,N
1597931756.0,286046996.9,N
1597931775.8,286046997.4,N
1597931795.7,286046996.7,N
1597931815.5,286046996.8,N
1597931835.3,286046996.6,N
1597931855.2,286046996.6,N
1597931875.0,286046996.7,N
1597931875.9,286046996.7,N
1597931895.7,286046997.5,N
1597931915.6,286046996.7,N
1597931935.4,286046997.0,N
1597931955.3,286046997.1,N
1597931975.1,286046997.7,N
1597931976.0,286046997.7,N
1597931995.8,286046994.9,N
